Time,TemperatureF,DewpointF,PressureIn,WindDirection,WindDirectionDegrees,WindSpeedMPH,WindSpeedGustMPH,Humidity,HourlyPrecipIn,Conditions,Clouds,dailyrainin,SoftwareType,DateUTC
2013-08-24 00:01:00,66.4,57.5,29.81,West,270,0.4,0.4,73,0.00,,---,0.00,VWS V14.01,2013-08-24 06:01:00,
2013-08-24 00:06:00,66.6,57.7,29.81,WSW,248,0.4,0.4,73,0.00,,---,0.00,VWS V14.01,2013-08-24 06:06:00,
2013-08-24 00:11:00,66.8,57.9,29.81,WSW,248,0.4,0.4,73,0.00,,---,0.00,VWS V14.01,2013-08-24 06:11:00,
2013-08-24 00:16:00,66.8,57.5,29.81,WSW,248,0.0,0.0,72,0.00,,---,0.00,VWS V14.01,2013-08-24 06:16:00,
2013-08-24 00:21:00,67.0,57.7,29.80,WSW,248,0.0,0.0,72,0.00,,---,0.00,VWS V14.01,2013-08-24 06:21:00,
2013-08-24 00:26:00,67.0,57.7,29.81,WSW,248,0.0,0.0,72,0.00,,---,0.00,VWS V14.01,2013-08-24 06:26:00,
2013-08-24 00:31:00,66.8,57.5,29.80,West,270,0.4,0.4,72,0.00,,---,0.00,VWS V14.01,2013-08-24 06:31:00,
2013-08-24 00:36:00,66.8,57.5,29.80,WSW,248,0.7,0.7,72,0.00,,---,0.00,VWS V14.01,2013-08-24 06:36:00,
2013-08-24 00:42:00,66.6,57.7,29.80,NW,315,2.0,2.0,73,0.00,,---,0.00,VWS V14.01,2013-08-24 06:42:00,
2013-08-24 00:47:00,66.4,57.1,29.81,WNW,292,0.4,0.4,72,0.00,,---,0.00,VWS V14.01,2013-08-24 06:47:00,
2013-08-24 00:52:00,66.6,56.9,29.81,WNW,292,0.4,0.4,71,0.00,,---,0.00,VWS V14.01,2013-08-24 06:52:00,
2013-08-24 00:57:00,66.8,57.1,29.81,WNW,292,0.4,0.4,71,0.00,,---,0.00,VWS V14.01,2013-08-24 06:57:00,
2013-08-24 01:02:00,67.0,56.9,29.81,WSW,248,0.4,0.4,70,0.00,,---,0.00,VWS V14.01,2013-08-24 07:02:00,
2013-08-24 01:07:00,67.3,56.8,29.81,WSW,248,0.9,0.9,69,0.00,,---,0.00,VWS V14.01,2013-08-24 07:07:00,
2013-08-24 01:12:00,67.3,56.8,29.81,WSW,248,0.4,0.4,69,0.00,,---,0.00,VWS V14.01,2013-08-24 07:12:00,
2013-08-24 01:17:00,67.3,56.8,29.81,WSW,248,0.4,0.4,69,0.00,,---,0.00,VWS V14.01,2013-08-24 07:17:00,
2013-08-24 01:22:00,67.3,56.4,29.81,WSW,248,0.0,0.0,68,0.00,,---,0.00,VWS V14.01,2013-08-24 07:22:00,
2013-08-24 01:27:00,67.7,56.8,29.81,WSW,248,0.4,0.4,68,0.00,,---,0.00,VWS V14.01,2013-08-24 07:27:00,
2013-08-24 01:32:00,68.0,56.2,29.81,WSW,248,1.1,1.1,66,0.00,,---,0.00,VWS V14.01,2013-08-24 07:32:00,
2013-08-24 01:37:00,68.6,56.4,29.81,WSW,248,2.5,2.5,65,0.00,,---,0.00,VWS V14.01,2013-08-24 07:37:00,
2013-08-24 01:42:00,69.1,56.0,29.81,WNW,292,0.7,0.7,63,0.00,,---,0.00,VWS V14.01,2013-08-24 07:42:00,
2013-08-24 01:47:00,70.0,55.5,29.81,SW,225,1.3,1.3,60,0.00,,---,0.00,VWS V14.01,2013-08-24 07:47:00,
2013-08-24 01:52:00,70.9,55.4,29.81,WSW,248,4.9,4.9,58,0.00,,---,0.00,VWS V14.01,2013-08-24 07:52:00,
2013-08-24 01:57:00,72.0,55.5,29.81,NW,315,4.9,4.9,56,0.00,,---,0.00,VWS V14.01,2013-08-24 07:57:00,
2013-08-24 02:02:00,72.0,55.5,29.81,NW,315,2.2,2.2,56,0.00,,---,0.00,VWS V14.01,2013-08-24 08:02:00,
2013-08-24 02:07:00,72.0,55.5,29.81,NW,315,1.3,1.3,56,0.00,,---,0.00,VWS V14.01,2013-08-24 08:07:00,
2013-08-24 02:12:00,72.0,55.0,29.81,NW,315,1.1,1.1,55,0.00,,---,0.00,VWS V14.01,2013-08-24 08:12:00,
2013-08-24 02:17:00,71.8,55.3,29.80,WSW,248,0.4,0.4,56,0.00,,---,0.00,VWS V14.01,2013-08-24 08:17:00,
2013-08-24 02:22:00,71.6,54.6,29.80,NW,315,0.2,0.2,55,0.00,,---,0.00,VWS V14.01,2013-08-24 08:22:00,
2013-08-24 02:27:00,71.5,54.5,29.80,WNW,292,1.1,1.1,55,0.00,,---,0.00,VWS V14.01,2013-08-24 08:27:00,
2013-08-24 02:32:00,71.1,54.1,29.80,WSW,248,0.9,0.9,55,0.00,,---,0.00,VWS V14.01,2013-08-24 08:32:00,
2013-08-24 02:37:00,70.9,54.0,29.80,WSW,248,0.7,0.7,55,0.00,,---,0.00,VWS V14.01,2013-08-24 08:37:00,
2013-08-24 02:42:00,70.6,53.7,29.80,WSW,248,0.0,0.0,55,0.00,,---,0.00,VWS V14.01,2013-08-24 08:42:00,
2013-08-24 02:47:00,70.4,53.5,29.80,SW,225,0.7,0.7,55,0.00,,---,0.00,VWS V14.01,2013-08-24 08:47:00,
2013-08-24 02:52:00,70.4,53.5,29.80,South,180,1.6,1.6,55,0.00,,---,0.00,VWS V14.01,2013-08-24 08:52:00,
2013-08-24 02:57:00,70.4,53.5,29.80,WSW,248,0.7,0.7,55,0.00,,---,0.00,VWS V14.01,2013-08-24 08:57:00,
2013-08-24 03:02:00,70.6,53.7,29.81,WSW,248,0.4,0.4,55,0.00,,---,0.00,VWS V14.01,2013-08-24 09:02:00,
2013-08-24 03:07:00,70.6,53.7,29.81,WSW,248,0.9,0.9,55,0.00,,---,0.00,VWS V14.01,2013-08-24 09:07:00,
2013-08-24 03:12:00,70.6,53.2,29.81,SW,225,0.4,0.4,54,0.00,,---,0.00,VWS V14.01,2013-08-24 09:12:00,
2013-08-24 03:17:00,70.7,53.3,29.81,WSW,248,1.1,1.1,54,0.00,,---,0.00,VWS V14.01,2013-08-24 09:17:00,
2013-08-24 03:22:00,71.1,52.6,29.83,WSW,248,1.8,1.8,52,0.00,,---,0.00,VWS V14.01,2013-08-24 09:22:00,
2013-08-24 03:27:00,71.6,53.1,29.83,WSW,248,0.4,0.4,52,0.00,,---,0.00,VWS V14.01,2013-08-24 09:27:00,
2013-08-24 03:32:00,71.6,52.5,29.82,WNW,292,0.4,0.4,51,0.00,,---,0.00,VWS V14.01,2013-08-24 09:32:00,
2013-08-24 03:37:00,71.6,53.1,29.80,WNW,292,0.4,0.4,52,0.00,,---,0.00,VWS V14.01,2013-08-24 09:37:00,
2013-08-24 03:42:00,71.3,52.8,29.80,WSW,248,1.8,1.8,52,0.00,,---,0.00,VWS V14.01,2013-08-24 09:42:00,
2013-08-24 03:47:00,71.1,52.6,29.80,WSW,248,1.1,1.1,52,0.00,,---,0.00,VWS V14.01,2013-08-24 09:47:00,
2013-08-24 03:52:00,71.1,52.6,29.80,WNW,292,1.1,1.1,52,0.00,,---,0.00,VWS V14.01,2013-08-24 09:52:00,
2013-08-24 03:57:00,70.9,52.9,29.80,WNW,292,0.0,0.0,53,0.00,,---,0.00,VWS V14.01,2013-08-24 09:57:00,
2013-08-24 04:02:00,70.6,53.2,29.80,WNW,292,0.4,0.4,54,0.00,,---,0.00,VWS V14.01,2013-08-24 10:02:00,
2013-08-24 04:07:00,70.0,52.6,29.80,SE,135,0.4,0.4,54,0.00,,---,0.00,VWS V14.01,2013-08-24 10:07:00,
2013-08-24 04:12:00,69.7,52.3,29.81,SE,135,0.4,0.4,54,0.00,,---,0.00,VWS V14.01,2013-08-24 10:12:00,
2013-08-24 04:17:00,69.1,52.3,29.82,SE,135,0.0,0.0,55,0.00,,---,0.00,VWS V14.01,2013-08-24 10:17:00,
2013-08-24 04:22:00,68.6,52.3,29.82,SW,225,0.4,0.4,56,0.00,,---,0.00,VWS V14.01,2013-08-24 10:22:00,
2013-08-24 04:27:00,68.0,51.7,29.82,SW,225,1.6,1.6,56,0.00,,---,0.00,VWS V14.01,2013-08-24 10:27:00,
2013-08-24 04:32:00,68.0,51.7,29.82,SW,225,0.2,0.2,56,0.00,,---,0.00,VWS V14.01,2013-08-24 10:32:00,
2013-08-24 04:37:00,67.9,52.1,29.83,SW,225,0.0,0.0,57,0.00,,---,0.00,VWS V14.01,2013-08-24 10:37:00,
2013-08-24 04:42:00,67.3,52.5,29.83,West,270,0.4,0.4,59,0.00,,---,0.00,VWS V14.01,2013-08-24 10:42:00,
2013-08-24 04:47:00,67.0,52.7,29.83,West,270,0.2,0.2,60,0.00,,---,0.00,VWS V14.01,2013-08-24 10:47:00,
2013-08-24 04:52:00,66.2,52.4,29.83,West,270,0.0,0.0,61,0.00,,---,0.00,VWS V14.01,2013-08-24 10:52:00,
2013-08-24 04:57:00,65.7,52.3,29.83,SW,225,0.0,0.0,62,0.00,,---,0.00,VWS V14.01,2013-08-24 10:57:00,
2013-08-24 05:02:00,65.5,51.7,29.83,SW,225,0.9,0.9,61,0.00,,---,0.00,VWS V14.01,2013-08-24 11:02:00,
2013-08-24 05:07:00,65.7,51.9,29.84,SW,225,0.0,0.0,61,0.00,,---,0.00,VWS V14.01,2013-08-24 11:07:00,
2013-08-24 05:12:00,65.5,51.7,29.83,SW,225,0.0,0.0,61,0.00,,---,0.00,VWS V14.01,2013-08-24 11:12:00,
2013-08-24 05:17:00,65.2,52.7,29.83,SW,225,0.0,0.0,64,0.00,,---,0.00,VWS V14.01,2013-08-24 11:17:00,
2013-08-24 05:22:00,64.8,52.8,29.84,SW,225,0.0,0.0,65,0.00,,---,0.00,VWS V14.01,2013-08-24 11:22:00,
2013-08-24 05:27:00,64.4,52.4,29.84,SW,225,0.0,0.0,65,0.00,,---,0.00,VWS V14.01,2013-08-24 11:27:00,
2013-08-24 05:32:00,63.9,51.9,29.84,SW,225,0.2,0.2,65,0.00,,---,0.00,VWS V14.01,2013-08-24 11:32:00,
2013-08-24 05:37:00,63.7,52.1,29.84,SW,225,0.0,0.0,66,0.00,,---,0.00,VWS V14.01,2013-08-24 11:37:00,
2013-08-24 05:42:00,63.7,51.7,29.84,SW,225,0.0,0.0,65,0.00,,---,0.00,VWS V14.01,2013-08-24 11:42:00,
2013-08-24 05:48:00,63.4,51.9,29.84,SW,225,0.4,0.4,66,0.00,,---,0.00,VWS V14.01,2013-08-24 11:48:00,
2013-08-24 05:52:00,63.2,51.7,29.84,WSW,248,0.0,0.0,66,0.00,,---,0.00,VWS V14.01,2013-08-24 11:52:00,
2013-08-24 05:58:00,62.6,51.5,29.84,WSW,248,0.0,0.0,67,0.00,,---,0.00,VWS V14.01,2013-08-24 11:58:00,
2013-08-24 06:03:00,62.3,52.0,29.84,SW,225,0.2,0.2,69,0.00,,---,0.00,VWS V14.01,2013-08-24 12:03:00,
2013-08-24 06:08:00,61.9,51.2,29.85,SW,225,0.0,0.0,68,0.00,,---,0.00,VWS V14.01,2013-08-24 12:08:00,
2013-08-24 06:13:00,61.9,51.6,29.84,WSW,248,0.4,0.4,69,0.00,,---,0.00,VWS V14.01,2013-08-24 12:13:00,
2013-08-24 06:18:00,61.7,51.4,29.84,SW,225,0.7,0.7,69,0.00,,---,0.00,VWS V14.01,2013-08-24 12:18:00,
2013-08-24 06:23:00,61.4,51.2,29.85,WSW,248,0.7,0.7,69,0.00,,---,0.00,VWS V14.01,2013-08-24 12:23:00,
2013-08-24 06:28:00,61.6,51.3,29.85,WSW,248,0.0,0.0,69,0.00,,---,0.00,VWS V14.01,2013-08-24 12:28:00,
2013-08-24 06:33:00,61.6,51.3,29.84,SW,225,0.2,0.2,69,0.00,,---,0.00,VWS V14.01,2013-08-24 12:33:00,
2013-08-24 06:38:00,61.4,51.2,29.85,SW,225,0.0,0.0,69,0.00,,---,0.00,VWS V14.01,2013-08-24 12:38:00,
2013-08-24 06:43:00,61.7,51.4,29.85,SW,225,0.4,0.4,69,0.00,,---,0.00,VWS V14.01,2013-08-24 12:43:00,
2013-08-24 06:48:00,62.1,52.2,29.85,SW,225,0.4,0.4,70,0.00,,---,0.00,VWS V14.01,2013-08-24 12:48:00,
2013-08-24 06:53:00,62.5,52.6,29.84,SW,225,0.0,0.0,70,0.00,,---,0.00,VWS V14.01,2013-08-24 12:53:00,
2013-08-24 06:58:00,63.2,53.3,29.85,SW,225,0.0,0.0,70,0.00,,---,0.00,VWS V14.01,2013-08-24 12:58:00,
2013-08-24 07:03:00,64.1,53.3,29.85,NNW,338,0.4,0.4,68,0.00,,---,0.00,VWS V14.01,2013-08-24 13:03:00,
2013-08-24 07:08:00,64.8,54.0,29.84,WSW,248,0.7,0.7,68,0.00,,---,0.00,VWS V14.01,2013-08-24 13:08:00,
2013-08-24 07:13:00,65.2,54.4,29.84,WSW,248,0.0,0.0,68,0.00,,---,0.00,VWS V14.01,2013-08-24 13:13:00,
2013-08-24 07:18:00,66.2,54.1,29.84,WSW,248,0.7,0.7,65,0.00,,---,0.00,VWS V14.01,2013-08-24 13:18:00,
2013-08-24 07:23:00,67.5,55.3,29.85,SW,225,0.0,0.0,65,0.00,,---,0.00,VWS V14.01,2013-08-24 13:23:00,
2013-08-24 07:28:00,68.4,54.9,29.85,SW,225,0.2,0.2,62,0.00,,---,0.00,VWS V14.01,2013-08-24 13:28:00,
2013-08-24 07:33:00,69.5,55.5,29.85,SW,225,0.0,0.0,61,0.00,,---,0.00,VWS V14.01,2013-08-24 13:33:00,
2013-08-24 07:38:00,70.2,54.8,29.85,SW,225,0.2,0.2,58,0.00,,---,0.00,VWS V14.01,2013-08-24 13:38:00,
2013-08-24 07:43:00,70.2,54.8,29.85,SW,225,0.0,0.0,58,0.00,,---,0.00,VWS V14.01,2013-08-24 13:43:00,
2013-08-24 07:48:00,70.6,55.1,29.85,SSW,202,1.1,1.1,58,0.00,,---,0.00,VWS V14.01,2013-08-24 13:48:00,
2013-08-24 07:53:00,70.9,54.4,29.85,West,270,0.0,0.0,56,0.00,,---,0.00,VWS V14.01,2013-08-24 13:53:00,
2013-08-24 07:58:00,71.6,55.1,29.85,West,270,0.0,0.0,56,0.00,,---,0.00,VWS V14.01,2013-08-24 13:58:00,
2013-08-24 08:03:00,72.9,55.3,29.85,SW,225,0.4,0.4,54,0.00,,---,0.00,VWS V14.01,2013-08-24 14:03:00,
2013-08-24 08:08:00,74.2,55.5,29.85,NNW,338,0.4,0.4,52,0.00,,---,0.00,VWS V14.01,2013-08-24 14:08:00,
2013-08-24 08:13:00,75.4,54.9,29.85,WSW,248,0.9,0.9,49,0.00,,---,0.00,VWS V14.01,2013-08-24 14:13:00,
2013-08-24 08:18:00,76.0,54.3,29.85,NW,315,0.2,0.2,47,0.00,,---,0.00,VWS V14.01,2013-08-24 14:18:00,
2013-08-24 08:23:00,75.8,54.7,29.85,NNW,338,1.1,1.1,48,0.00,,---,0.00,VWS V14.01,2013-08-24 14:23:00,
2013-08-24 08:28:00,75.8,54.7,29.85,WNW,292,1.3,1.3,48,0.00,,---,0.00,VWS V14.01,2013-08-24 14:28:00,
2013-08-24 08:33:00,76.0,55.5,29.85,NNW,338,1.3,1.3,49,0.00,,---,0.00,VWS V14.01,2013-08-24 14:33:00,
2013-08-24 08:38:00,76.7,55.0,29.85,SW,225,2.2,2.2,47,0.00,,---,0.00,VWS V14.01,2013-08-24 14:38:00,
2013-08-24 08:43:00,77.8,56.0,29.85,NNW,338,1.6,1.6,47,0.00,,---,0.00,VWS V14.01,2013-08-24 14:43:00,
2013-08-24 08:48:00,78.1,55.0,29.85,South,180,3.1,3.1,45,0.00,,---,0.00,VWS V14.01,2013-08-24 14:48:00,
2013-08-24 08:53:00,78.5,56.0,29.85,ENE,68,0.9,0.9,46,0.00,,---,0.00,VWS V14.01,2013-08-24 14:53:00,
2013-08-24 08:58:00,79.4,56.8,29.85,North,0,0.2,0.2,46,0.00,,---,0.00,VWS V14.01,2013-08-24 14:58:00,
2013-08-24 09:03:00,81.2,57.2,29.85,North,0,0.4,0.4,44,0.00,,---,0.00,VWS V14.01,2013-08-24 15:03:00,
2013-08-24 09:08:00,81.5,56.2,29.85,North,0,0.9,0.9,42,0.00,,---,0.00,VWS V14.01,2013-08-24 15:08:00,
2013-08-24 09:13:00,81.9,55.9,29.85,WSW,248,0.9,0.9,41,0.00,,---,0.00,VWS V14.01,2013-08-24 15:13:00,
2013-08-24 09:18:00,82.4,56.4,29.85,NW,315,0.4,0.4,41,0.00,,---,0.00,VWS V14.01,2013-08-24 15:18:00,
2013-08-24 09:23:00,83.5,56.0,29.85,ENE,68,0.7,0.7,39,0.00,,---,0.00,VWS V14.01,2013-08-24 15:23:00,
2013-08-24 09:28:00,83.9,56.3,29.85,SW,225,1.1,1.1,39,0.00,,---,0.00,VWS V14.01,2013-08-24 15:28:00,
2013-08-24 09:33:00,84.4,56.8,29.85,NNW,338,1.1,1.1,39,0.00,,---,0.00,VWS V14.01,2013-08-24 15:33:00,
2013-08-24 09:38:00,84.8,56.4,29.85,NNW,338,0.9,0.9,38,0.00,,---,0.00,VWS V14.01,2013-08-24 15:38:00,
2013-08-24 09:43:00,85.3,56.1,29.85,West,270,1.1,1.1,37,0.00,,---,0.00,VWS V14.01,2013-08-24 15:43:00,
2013-08-24 09:49:00,86.2,56.9,29.85,North,0,1.1,1.1,37,0.00,,---,0.00,VWS V14.01,2013-08-24 15:49:00,
2013-08-24 09:54:00,87.1,56.9,29.85,North,0,1.8,1.8,36,0.00,,---,0.00,VWS V14.01,2013-08-24 15:54:00,
2013-08-24 09:59:00,87.5,55.7,29.85,WNW,292,1.1,1.1,34,0.00,,---,0.00,VWS V14.01,2013-08-24 15:59:00,
2013-08-24 10:04:00,88.2,57.1,29.85,ENE,68,0.7,0.7,35,0.00,,---,0.00,VWS V14.01,2013-08-24 16:04:00,
2013-08-24 10:09:00,89.3,55.6,29.85,West,270,1.1,1.1,32,0.00,,---,0.00,VWS V14.01,2013-08-24 16:09:00,
2013-08-24 10:14:00,89.6,55.9,29.85,WSW,248,1.6,1.6,32,0.00,,---,0.00,VWS V14.01,2013-08-24 16:14:00,
2013-08-24 10:19:00,89.5,54.0,29.85,West,270,2.5,2.5,30,0.00,,---,0.00,VWS V14.01,2013-08-24 16:19:00,
2013-08-24 10:24:00,89.5,53.1,29.85,NNE,22,4.3,4.3,29,0.00,,---,0.00,VWS V14.01,2013-08-24 16:24:00,
2013-08-24 10:29:00,89.6,54.1,29.85,WNW,292,1.8,1.8,30,0.00,,---,0.00,VWS V14.01,2013-08-24 16:29:00,
2013-08-24 10:34:00,89.1,51.8,29.85,WSW,248,4.3,4.3,28,0.00,,---,0.00,VWS V14.01,2013-08-24 16:34:00,
2013-08-24 10:39:00,89.5,52.1,29.86,SSW,202,1.1,1.1,28,0.00,,---,0.00,VWS V14.01,2013-08-24 16:39:00,
2013-08-24 10:44:00,89.3,50.0,29.86,SW,225,8.1,8.1,26,0.00,,---,0.00,VWS V14.01,2013-08-24 16:44:00,
2013-08-24 10:49:00,90.4,51.9,29.86,WNW,292,2.0,2.0,27,0.00,,---,0.00,VWS V14.01,2013-08-24 16:49:00,
2013-08-24 10:54:00,90.5,49.9,29.86,West,270,5.6,5.6,25,0.00,,---,0.00,VWS V14.01,2013-08-24 16:54:00,
2013-08-24 11:00:00,90.2,48.6,29.86,WNW,292,3.4,3.4,24,0.00,,---,0.00,VWS V14.01,2013-08-24 17:00:00,
2013-08-24 11:05:00,90.7,50.1,29.86,SW,225,2.7,2.7,25,0.00,,---,0.00,VWS V14.01,2013-08-24 17:05:00,
2013-08-24 11:10:00,92.2,51.3,29.86,NNW,338,4.0,4.0,25,0.00,,---,0.00,VWS V14.01,2013-08-24 17:10:00,
2013-08-24 11:15:00,92.5,51.6,29.86,NW,315,2.9,2.9,25,0.00,,---,0.00,VWS V14.01,2013-08-24 17:15:00,
2013-08-24 11:20:00,93.1,52.1,29.86,WNW,292,3.8,3.8,25,0.00,,---,0.00,VWS V14.01,2013-08-24 17:20:00,
2013-08-24 11:25:00,93.4,53.4,29.86,SW,225,3.4,3.4,26,0.00,,---,0.00,VWS V14.01,2013-08-24 17:25:00,
2013-08-24 11:30:00,93.6,51.4,29.87,NW,315,4.9,4.9,24,0.00,,---,0.00,VWS V14.01,2013-08-24 17:30:00,
2013-08-24 11:35:00,92.9,50.8,29.87,WSW,248,5.4,5.4,24,0.00,,---,0.00,VWS V14.01,2013-08-24 17:35:00,
2013-08-24 11:40:00,92.5,51.6,29.86,WSW,248,0.4,0.4,25,0.00,,---,0.00,VWS V14.01,2013-08-24 17:40:00,
2013-08-24 11:45:00,92.9,50.8,29.86,NW,315,2.9,2.9,24,0.00,,---,0.00,VWS V14.01,2013-08-24 17:45:00,
2013-08-24 11:50:00,93.4,51.2,29.86,NW,315,4.3,4.3,24,0.00,,---,0.00,VWS V14.01,2013-08-24 17:50:00,
2013-08-24 11:55:00,92.5,51.6,29.86,NE,45,1.3,1.3,25,0.00,,---,0.00,VWS V14.01,2013-08-24 17:55:00,
2013-08-24 12:00:00,90.5,51.0,29.86,SW,225,2.9,2.9,26,0.00,,---,0.00,VWS V14.01,2013-08-24 18:00:00,
2013-08-24 12:05:00,89.3,50.0,29.86,NW,315,4.3,4.3,26,0.00,,---,0.00,VWS V14.01,2013-08-24 18:05:00,
2013-08-24 12:10:00,89.1,49.8,29.86,SW,225,5.6,5.6,26,0.00,,---,0.00,VWS V14.01,2013-08-24 18:10:00,
2013-08-24 12:15:00,88.7,50.5,29.86,WSW,248,1.3,1.3,27,0.00,,---,0.00,VWS V14.01,2013-08-24 18:15:00,
2013-08-24 12:20:00,89.1,49.8,29.86,SE,135,1.6,1.6,26,0.00,,---,0.00,VWS V14.01,2013-08-24 18:20:00,
2013-08-24 12:25:00,89.5,50.1,29.86,SW,225,2.7,2.7,26,0.00,,---,0.00,VWS V14.01,2013-08-24 18:25:00,
2013-08-24 12:30:00,89.3,52.0,29.86,WSW,248,6.3,6.3,28,0.00,,---,0.00,VWS V14.01,2013-08-24 18:30:00,
2013-08-24 12:35:00,88.7,49.5,29.87,SW,225,4.3,4.3,26,0.00,,---,0.00,VWS V14.01,2013-08-24 18:35:00,
2013-08-24 12:40:00,88.6,48.3,29.86,WSW,248,4.7,4.7,25,0.00,,---,0.00,VWS V14.01,2013-08-24 18:40:00,
2013-08-24 12:45:00,88.6,51.4,29.86,SW,225,2.5,2.5,28,0.00,,---,0.00,VWS V14.01,2013-08-24 18:45:00,
2013-08-24 12:50:00,88.7,49.5,29.86,NW,315,2.2,2.2,26,0.00,,---,0.00,VWS V14.01,2013-08-24 18:50:00,
2013-08-24 12:55:00,88.9,49.6,29.86,SW,225,4.3,4.3,26,0.00,,---,0.00,VWS V14.01,2013-08-24 18:55:00,
2013-08-24 13:00:00,88.7,51.4,29.86,SW,225,4.3,4.3,28,0.00,,---,0.00,VWS V14.01,2013-08-24 19:00:00,
2013-08-24 13:05:00,89.3,52.0,29.86,SW,225,6.3,6.3,28,0.00,,---,0.00,VWS V14.01,2013-08-24 19:05:00,
2013-08-24 13:10:00,89.5,50.1,29.86,West,270,6.5,6.5,26,0.00,,---,0.00,VWS V14.01,2013-08-24 19:10:00,
2013-08-24 13:15:00,89.5,50.1,29.86,WSW,248,3.8,3.8,26,0.00,,---,0.00,VWS V14.01,2013-08-24 19:15:00,
2013-08-24 13:20:00,88.7,51.4,29.86,NW,315,1.8,1.8,28,0.00,,---,0.00,VWS V14.01,2013-08-24 19:20:00,
2013-08-24 13:25:00,88.6,51.4,29.86,WSW,248,2.7,2.7,28,0.00,,---,0.00,VWS V14.01,2013-08-24 19:25:00,
2013-08-24 13:30:00,87.8,50.7,29.87,NW,315,2.9,2.9,28,0.00,,---,0.00,VWS V14.01,2013-08-24 19:30:00,
2013-08-24 13:35:00,87.1,51.0,29.87,SW,225,1.6,1.6,29,0.00,,---,0.00,VWS V14.01,2013-08-24 19:35:00,
2013-08-24 13:40:00,86.8,50.8,29.87,WSW,248,2.5,2.5,29,0.00,,---,0.00,VWS V14.01,2013-08-24 19:40:00,
2013-08-24 13:45:00,86.4,52.2,29.87,West,270,1.8,1.8,31,0.00,,---,0.00,VWS V14.01,2013-08-24 19:45:00,
2013-08-24 13:50:00,86.2,51.2,29.87,WSW,248,2.5,2.5,30,0.00,,---,0.00,VWS V14.01,2013-08-24 19:50:00,
2013-08-24 13:55:00,85.9,52.7,29.87,WNW,292,1.8,1.8,32,0.00,,---,0.00,VWS V14.01,2013-08-24 19:55:00,
2013-08-24 14:00:00,86.2,52.9,29.87,SSW,202,5.1,5.1,32,0.00,,---,0.00,VWS V14.01,2013-08-24 20:00:00,
2013-08-24 14:05:00,86.8,52.6,29.86,NW,315,1.1,1.1,31,0.00,,---,0.00,VWS V14.01,2013-08-24 20:05:00,
2013-08-24 14:10:00,87.5,54.0,29.87,WNW,292,2.2,2.2,32,0.00,,---,0.00,VWS V14.01,2013-08-24 20:10:00,
2013-08-24 14:16:00,87.7,52.5,29.87,SW,225,3.4,3.4,30,0.00,,---,0.00,VWS V14.01,2013-08-24 20:16:00,
2013-08-24 14:21:00,86.9,52.7,29.87,NNW,338,4.0,4.0,31,0.00,,---,0.00,VWS V14.01,2013-08-24 20:21:00,
2013-08-24 14:26:00,86.4,52.2,29.87,SSW,202,1.8,1.8,31,0.00,,---,0.00,VWS V14.01,2013-08-24 20:26:00,
2013-08-24 14:31:00,86.2,52.9,29.87,SSW,202,2.9,2.9,32,0.00,,---,0.00,VWS V14.01,2013-08-24 20:31:00,
2013-08-24 14:36:00,86.8,52.6,29.86,SW,225,4.7,4.7,31,0.00,,---,0.00,VWS V14.01,2013-08-24 20:36:00,
2013-08-24 14:41:00,87.3,52.1,29.86,SW,225,4.0,4.0,30,0.00,,---,0.00,VWS V14.01,2013-08-24 20:41:00,
2013-08-24 14:46:00,87.8,52.5,29.86,WSW,248,4.7,4.7,30,0.00,,---,0.00,VWS V14.01,2013-08-24 20:46:00,
2013-08-24 14:51:00,87.8,52.5,29.86,SW,225,2.7,2.7,30,0.00,,---,0.00,VWS V14.01,2013-08-24 20:51:00,
2013-08-24 14:56:00,87.1,53.7,29.86,SW,225,1.1,1.1,32,0.00,,---,0.00,VWS V14.01,2013-08-24 20:56:00,
2013-08-24 15:01:00,86.8,52.6,29.86,SSE,158,5.4,5.4,31,0.00,,---,0.00,VWS V14.01,2013-08-24 21:01:00,
2013-08-24 15:06:00,87.7,51.5,29.85,WSW,248,4.9,4.9,29,0.00,,---,0.00,VWS V14.01,2013-08-24 21:06:00,
2013-08-24 15:11:00,88.0,51.8,29.85,WSW,248,3.1,3.1,29,0.00,,---,0.00,VWS V14.01,2013-08-24 21:11:00,
2013-08-24 15:16:00,88.2,52.0,29.85,WSW,248,4.5,4.5,29,0.00,,---,0.00,VWS V14.01,2013-08-24 21:16:00,
2013-08-24 15:21:00,88.4,53.1,29.85,SW,225,2.2,2.2,30,0.00,,---,0.00,VWS V14.01,2013-08-24 21:21:00,
2013-08-24 15:26:00,88.2,52.0,29.85,NNW,338,6.5,6.5,29,0.00,,---,0.00,VWS V14.01,2013-08-24 21:26:00,
2013-08-24 15:31:00,88.2,52.9,29.85,SW,225,1.1,1.1,30,0.00,,---,0.00,VWS V14.01,2013-08-24 21:31:00,
2013-08-24 15:36:00,88.2,52.0,29.85,WSW,248,2.0,2.0,29,0.00,,---,0.00,VWS V14.01,2013-08-24 21:36:00,
2013-08-24 15:41:00,88.2,51.0,29.85,West,270,3.8,3.8,28,0.00,,---,0.00,VWS V14.01,2013-08-24 21:41:00,
2013-08-24 15:46:00,88.4,52.1,29.85,WSW,248,2.7,2.7,29,0.00,,---,0.00,VWS V14.01,2013-08-24 21:46:00,
2013-08-24 15:51:00,88.6,51.4,29.85,SW,225,6.9,6.9,28,0.00,,---,0.00,VWS V14.01,2013-08-24 21:51:00,
2013-08-24 15:56:00,88.2,51.0,29.85,WSW,248,2.2,2.2,28,0.00,,---,0.00,VWS V14.01,2013-08-24 21:56:00,
2013-08-24 16:01:00,88.4,51.2,29.85,NW,315,2.5,2.5,28,0.00,,---,0.00,VWS V14.01,2013-08-24 22:01:00,
2013-08-24 16:06:00,88.9,52.6,29.85,WNW,292,3.4,3.4,29,0.00,,---,0.00,VWS V14.01,2013-08-24 22:06:00,
2013-08-24 16:11:00,88.6,52.3,29.85,WSW,248,5.6,5.6,29,0.00,,---,0.00,VWS V14.01,2013-08-24 22:11:00,
2013-08-24 16:16:00,88.7,51.4,29.85,SW,225,9.8,9.8,28,0.00,,---,0.00,VWS V14.01,2013-08-24 22:16:00,
2013-08-24 16:21:00,88.2,52.0,29.85,SW,225,3.8,3.8,29,0.00,,---,0.00,VWS V14.01,2013-08-24 22:21:00,
2013-08-24 16:26:00,87.8,51.6,29.86,WSW,248,3.4,3.4,29,0.00,,---,0.00,VWS V14.01,2013-08-24 22:26:00,
2013-08-24 16:31:00,88.0,51.8,29.85,NW,315,1.1,1.1,29,0.00,,---,0.00,VWS V14.01,2013-08-24 22:31:00,
2013-08-24 16:36:00,88.2,52.9,29.85,NW,315,0.2,0.2,30,0.00,,---,0.00,VWS V14.01,2013-08-24 22:36:00,
2013-08-24 16:41:00,88.4,52.1,29.85,NNW,338,0.7,0.7,29,0.00,,---,0.00,VWS V14.01,2013-08-24 22:41:00,
2013-08-24 16:46:00,88.2,52.0,29.85,SW,225,1.1,1.1,29,0.00,,---,0.00,VWS V14.01,2013-08-24 22:46:00,
2013-08-24 16:51:00,87.7,52.5,29.86,NW,315,1.3,1.8,30,0.00,,---,0.00,VWS V14.01,2013-08-24 22:51:00,
2013-08-24 16:56:00,87.3,51.2,29.86,SW,225,3.8,3.8,29,0.00,,---,0.00,VWS V14.01,2013-08-24 22:56:00,
2013-08-24 17:01:00,86.6,51.5,29.86,SW,225,2.7,2.7,30,0.00,,---,0.00,VWS V14.01,2013-08-24 23:01:00,
2013-08-24 17:06:00,86.6,51.5,29.85,WSW,248,1.8,1.8,30,0.00,,---,0.00,VWS V14.01,2013-08-24 23:06:00,
2013-08-24 17:11:00,86.8,51.7,29.85,WNW,292,2.9,2.9,30,0.00,,---,0.00,VWS V14.01,2013-08-24 23:11:00,
2013-08-24 17:16:00,86.9,51.8,29.85,SSW,202,0.7,0.7,30,0.00,,---,0.00,VWS V14.01,2013-08-24 23:16:00,
2013-08-24 17:21:00,86.9,52.7,29.85,NNE,22,2.2,2.2,31,0.00,,---,0.00,VWS V14.01,2013-08-24 23:21:00,
2013-08-24 17:26:00,86.8,52.6,29.85,SW,225,0.4,0.4,31,0.00,,---,0.00,VWS V14.01,2013-08-24 23:26:00,
2013-08-24 17:31:00,86.8,51.7,29.85,WSW,248,2.5,2.5,30,0.00,,---,0.00,VWS V14.01,2013-08-24 23:31:00,
2013-08-24 17:36:00,86.8,50.8,29.85,West,270,3.4,3.4,29,0.00,,---,0.00,VWS V14.01,2013-08-24 23:36:00,
2013-08-24 17:41:00,86.4,50.4,29.85,WSW,248,7.4,7.4,29,0.00,,---,0.00,VWS V14.01,2013-08-24 23:41:00,
2013-08-24 17:46:00,86.2,50.2,29.85,SSW,202,4.7,4.7,29,0.00,,---,0.00,VWS V14.01,2013-08-24 23:46:00,
2013-08-24 17:51:00,86.0,51.0,29.85,SW,225,1.6,1.6,30,0.00,,---,0.00,VWS V14.01,2013-08-24 23:51:00,
2013-08-24 17:57:00,86.0,51.0,29.85,NNW,338,1.1,1.1,30,0.00,,---,0.00,VWS V14.01,2013-08-24 23:57:00,
2013-08-24 18:02:00,85.9,50.9,29.85,West,270,2.2,2.2,30,0.00,,---,0.00,VWS V14.01,2013-08-25 00:02:00,
2013-08-24 18:07:00,85.7,50.7,29.85,SW,225,3.6,3.6,30,0.00,,---,0.00,VWS V14.01,2013-08-25 00:07:00,
2013-08-24 18:12:00,85.7,50.7,29.86,SW,225,3.8,3.8,30,0.00,,---,0.00,VWS V14.01,2013-08-25 00:12:00,
2013-08-24 18:17:00,85.5,50.6,29.85,WSW,248,1.8,1.8,30,0.00,,---,0.00,VWS V14.01,2013-08-25 00:17:00,
2013-08-24 18:22:00,85.5,51.4,29.85,SW,225,3.4,3.4,31,0.00,,---,0.00,VWS V14.01,2013-08-25 00:22:00,
2013-08-24 18:27:00,85.1,50.2,29.86,SW,225,5.1,5.1,30,0.00,,---,0.00,VWS V14.01,2013-08-25 00:27:00,
2013-08-24 18:32:00,85.1,51.1,29.85,SSE,158,2.7,2.7,31,0.00,,---,0.00,VWS V14.01,2013-08-25 00:32:00,
2013-08-24 18:37:00,85.0,52.7,29.86,SW,225,1.3,1.3,33,0.00,,---,0.00,VWS V14.01,2013-08-25 00:37:00,
2013-08-24 18:42:00,84.2,52.8,29.86,WSW,248,1.8,1.8,34,0.00,,---,0.00,VWS V14.01,2013-08-25 00:42:00,
2013-08-24 18:47:00,83.5,52.2,29.86,West,270,1.1,1.1,34,0.00,,---,0.00,VWS V14.01,2013-08-25 00:47:00,
2013-08-24 18:52:00,83.2,52.7,29.86,WSW,248,1.3,1.3,35,0.00,,---,0.00,VWS V14.01,2013-08-25 00:52:00,
2013-08-24 18:57:00,82.6,53.0,29.86,WSW,248,3.1,3.1,36,0.00,,---,0.00,VWS V14.01,2013-08-25 00:57:00,
2013-08-24 19:02:00,82.1,53.3,29.86,SW,225,0.2,0.2,37,0.00,,---,0.00,VWS V14.01,2013-08-25 01:02:00,
2013-08-24 19:07:00,81.5,53.5,29.86,WSW,248,0.7,0.7,38,0.00,,---,0.00,VWS V14.01,2013-08-25 01:07:00,
2013-08-24 19:12:00,81.0,53.0,29.87,WSW,248,0.9,0.9,38,0.00,,---,0.00,VWS V14.01,2013-08-25 01:12:00,
2013-08-24 19:17:00,80.6,53.4,29.86,SW,225,1.3,1.3,39,0.00,,---,0.00,VWS V14.01,2013-08-25 01:17:00,
2013-08-24 19:22:00,80.3,53.1,29.87,WSW,248,0.4,0.4,39,0.00,,---,0.00,VWS V14.01,2013-08-25 01:22:00,
2013-08-24 19:27:00,79.7,53.3,29.87,WSW,248,1.3,1.3,40,0.00,,---,0.00,VWS V14.01,2013-08-25 01:27:00,
2013-08-24 19:32:00,79.2,52.8,29.87,WSW,248,1.1,1.1,40,0.00,,---,0.00,VWS V14.01,2013-08-25 01:32:00,
2013-08-24 19:37:00,78.8,53.1,29.87,WSW,248,0.4,0.4,41,0.00,,---,0.00,VWS V14.01,2013-08-25 01:37:00,
2013-08-24 19:42:00,78.3,52.7,29.87,WSW,248,0.2,1.1,41,0.00,,---,0.00,VWS V14.01,2013-08-25 01:42:00,
2013-08-24 19:47:00,77.8,53.5,29.88,WSW,248,0.4,0.4,43,0.00,,---,0.00,VWS V14.01,2013-08-25 01:47:00,
2013-08-24 19:52:00,77.2,53.0,29.88,WSW,248,0.0,0.0,43,0.00,,---,0.00,VWS V14.01,2013-08-25 01:52:00,
2013-08-24 19:57:00,76.7,53.8,29.88,WSW,248,1.3,1.3,45,0.00,,---,0.00,VWS V14.01,2013-08-25 01:57:00,
2013-08-24 20:02:00,76.0,53.8,29.88,WSW,248,0.4,0.4,46,0.00,,---,0.00,VWS V14.01,2013-08-25 02:02:00,
2013-08-24 20:07:00,75.4,53.8,29.88,WSW,248,0.4,0.4,47,0.00,,---,0.00,VWS V14.01,2013-08-25 02:07:00,
2013-08-24 20:12:00,74.9,53.9,29.88,WSW,248,0.9,0.9,48,0.00,,---,0.00,VWS V14.01,2013-08-25 02:12:00,
2013-08-24 20:17:00,74.3,53.9,29.89,WSW,248,0.2,0.2,49,0.00,,---,0.00,VWS V14.01,2013-08-25 02:17:00,
2013-08-24 20:22:00,73.6,53.8,29.89,WSW,248,0.7,0.7,50,0.00,,---,0.00,VWS V14.01,2013-08-25 02:22:00,
2013-08-24 20:27:00,72.9,54.3,29.89,WSW,248,0.7,0.7,52,0.00,,---,0.00,VWS V14.01,2013-08-25 02:27:00,
2013-08-24 20:32:00,72.5,53.4,29.89,WSW,248,0.2,0.2,51,0.00,,---,0.00,VWS V14.01,2013-08-25 02:32:00,
2013-08-24 20:37:00,72.4,53.3,29.89,SW,225,0.0,0.0,51,0.00,,---,0.00,VWS V14.01,2013-08-25 02:37:00,
2013-08-24 20:42:00,72.4,53.8,29.90,WSW,248,0.0,0.0,52,0.00,,---,0.00,VWS V14.01,2013-08-25 02:42:00,
2013-08-24 20:47:00,71.6,53.6,29.90,SW,225,0.9,0.9,53,0.00,,---,0.00,VWS V14.01,2013-08-25 02:47:00,
2013-08-24 20:52:00,71.3,53.3,29.90,SW,225,0.0,0.0,53,0.00,,---,0.00,VWS V14.01,2013-08-25 02:52:00,
2013-08-24 20:57:00,70.7,53.3,29.90,SW,225,0.4,0.4,54,0.00,,---,0.00,VWS V14.01,2013-08-25 02:57:00,
2013-08-24 21:02:00,70.2,53.3,29.90,SW,225,1.3,1.3,55,0.00,,---,0.00,VWS V14.01,2013-08-25 03:02:00,
2013-08-24 21:07:00,69.8,52.4,29.91,SW,225,0.0,0.0,54,0.00,,---,0.00,VWS V14.01,2013-08-25 03:07:00,
2013-08-24 21:12:00,69.7,52.3,29.90,SW,225,0.0,0.0,54,0.00,,---,0.00,VWS V14.01,2013-08-25 03:12:00,
2013-08-24 21:17:00,69.1,51.8,29.90,SW,225,0.2,0.2,54,0.00,,---,0.00,VWS V14.01,2013-08-25 03:17:00,
2013-08-24 21:22:00,68.9,51.6,29.91,SW,225,0.0,0.0,54,0.00,,---,0.00,VWS V14.01,2013-08-25 03:22:00,
2013-08-24 21:27:00,68.6,51.8,29.91,SW,225,0.0,0.0,55,0.00,,---,0.00,VWS V14.01,2013-08-25 03:27:00,
2013-08-24 21:32:00,67.9,52.1,29.91,SW,225,0.0,0.0,57,0.00,,---,0.00,VWS V14.01,2013-08-25 03:32:00,
2013-08-24 21:38:00,67.3,50.6,29.91,SW,225,0.0,0.0,55,0.00,,---,0.00,VWS V14.01,2013-08-25 03:38:00,
2013-08-24 21:43:00,67.3,51.1,29.91,SW,225,0.0,0.0,56,0.00,,---,0.00,VWS V14.01,2013-08-25 03:43:00,
2013-08-24 21:48:00,67.0,51.3,29.91,SW,225,0.2,0.2,57,0.00,,---,0.00,VWS V14.01,2013-08-25 03:48:00,
2013-08-24 21:53:00,66.6,50.9,29.91,SW,225,0.0,0.0,57,0.00,,---,0.00,VWS V14.01,2013-08-25 03:53:00,
2013-08-24 21:58:00,66.4,51.2,29.91,SW,225,0.0,0.0,58,0.00,,---,0.00,VWS V14.01,2013-08-25 03:58:00,
2013-08-24 22:01:00,66.1,50.9,29.92,SW,225,0.0,0.0,58,0.00,,---,0.00,VWS V14.01,2013-08-25 04:01:00,
2013-08-24 22:02:00,66.1,50.9,29.92,SW,225,0.0,0.0,58,0.00,,---,0.00,VWS V14.01,2013-08-25 04:02:00,
2013-08-24 22:07:00,65.7,51.0,29.92,SW,225,0.0,0.0,59,0.00,,---,0.00,VWS V14.01,2013-08-25 04:07:00,
2013-08-24 22:12:00,65.5,50.3,29.92,SW,225,0.0,0.0,58,0.00,,---,0.00,VWS V14.01,2013-08-25 04:12:00,
2013-08-24 22:17:00,65.3,50.6,29.92,SW,225,0.0,0.0,59,0.00,,---,0.00,VWS V14.01,2013-08-25 04:17:00,
2013-08-24 22:22:00,65.2,50.5,29.92,SW,225,0.2,0.2,59,0.00,,---,0.00,VWS V14.01,2013-08-25 04:22:00,
2013-08-24 22:27:00,65.0,50.3,29.93,SW,225,0.4,0.4,59,0.00,,---,0.00,VWS V14.01,2013-08-25 04:27:00,
2013-08-24 22:32:00,64.8,51.0,29.92,SW,225,0.4,0.4,61,0.00,,---,0.00,VWS V14.01,2013-08-25 04:32:00,
2013-08-24 22:37:00,64.6,50.9,29.92,NW,315,0.0,0.4,61,0.00,,---,0.00,VWS V14.01,2013-08-25 04:37:00,
2013-08-24 22:42:00,64.4,51.1,29.93,SW,225,1.1,1.1,62,0.00,,---,0.00,VWS V14.01,2013-08-25 04:42:00,
2013-08-24 22:47:00,64.4,51.1,29.92,SW,225,0.2,0.2,62,0.00,,---,0.00,VWS V14.01,2013-08-25 04:47:00,
2013-08-24 22:52:00,64.4,51.1,29.92,SW,225,0.4,0.4,62,0.00,,---,0.00,VWS V14.01,2013-08-25 04:52:00,
2013-08-24 22:57:00,64.4,51.1,29.92,SW,225,0.9,0.9,62,0.00,,---,0.00,VWS V14.01,2013-08-25 04:57:00,
2013-08-24 23:02:00,64.6,51.3,29.92,WSW,248,0.4,0.4,62,0.00,,---,0.00,VWS V14.01,2013-08-25 05:02:00,
2013-08-24 23:07:00,64.4,51.1,29.93,WSW,248,0.2,0.2,62,0.00,,---,0.00,VWS V14.01,2013-08-25 05:07:00,
2013-08-24 23:12:00,64.3,51.0,29.93,WSW,248,0.0,0.0,62,0.00,,---,0.00,VWS V14.01,2013-08-25 05:12:00,
2013-08-24 23:17:00,64.1,50.8,29.93,WSW,248,0.0,0.0,62,0.00,,---,0.00,VWS V14.01,2013-08-25 05:17:00,
2013-08-24 23:22:00,63.9,51.1,29.93,WSW,248,0.0,0.0,63,0.00,,---,0.00,VWS V14.01,2013-08-25 05:22:00,
2013-08-24 23:27:00,63.5,51.1,29.93,WSW,248,0.2,0.2,64,0.00,,---,0.00,VWS V14.01,2013-08-25 05:27:00,
2013-08-24 23:33:00,63.4,51.4,29.93,WSW,248,1.6,1.6,65,0.00,,---,0.00,VWS V14.01,2013-08-25 05:33:00,
2013-08-24 23:38:00,63.4,51.4,29.93,WSW,248,0.4,0.4,65,0.00,,---,0.00,VWS V14.01,2013-08-25 05:38:00,
2013-08-24 23:43:00,63.4,51.4,29.93,WSW,248,1.8,1.8,65,0.00,,---,0.00,VWS V14.01,2013-08-25 05:43:00,
2013-08-24 23:48:00,63.4,51.4,29.93,WSW,248,0.0,0.0,65,0.00,,---,0.00,VWS V14.01,2013-08-25 05:48:00,
2013-08-24 23:53:00,63.4,51.4,29.93,WSW,248,1.1,1.1,65,0.00,,---,0.00,VWS V14.01,2013-08-25 05:53:00,
2013-08-24 23:58:00,63.2,51.2,29.93,SW,225,1.1,1.1,65,0.00,,---,0.00,VWS V14.01,2013-08-25 05:58:00,